Location: Banios
(43.0451°N, 0.2335°E)
Time: 12:51:28
(UTC+00:00)

A-11 Canister half - Pass Details

Date: 10 May 2021
Orbit: 1513 x 1686 km, 47.2° (Epoch: 14 June)

Event Time Altitude Azimuth Distance (km) Brightness Sun altitude
Rises 22:49:19 0° 294° (WNW) 4,699 12.1 -27.2°
Reaches altitude 10° 22:52:49 10° 284° (WNW) 3,733 11.4 -27.4°
Maximum altitude 23:00:33 30° 228° (SW) 2,560 9.9 -27.8°
Enters shadow 23:01:26 29° 219° (SW) 2,585 9.8 -27.8°
Drops below altitude 10° 23:08:30 10° 173° (S) 3,832 - -28.1°
Sets 23:12:10 0° 162° (SSE) 4,841 - -28.3°
